Location: Helsinki
(60.1699°N, 24.9384°E)
Time: 23:06:48
(UTC+02:00)

A-11 Canister half - Pass Details

Date: 30 October 2020
Orbit: 1516 x 1684 km, 47.2° (Epoch: 26 November)

Event Time Altitude Azimuth Distance (km) Brightness Sun altitude
Rises 19:52:41 0° 208° (SSW) 4,929 11.8 -25.6°
Reaches altitude 10° 19:56:34 10° 197° (SSW) 3,936 11.1 -26.1°
Enters shadow 20:02:34 24° 161° (SSE) 2,933 10.1 -26.8°
Maximum altitude 20:04:13 26° 147° (SSE) 2,869 - -27.0°
Drops below altitude 10° 20:11:45 10° 97° (E) 3,873 - -27.8°
Sets 20:15:31 0° 85° (E) 4,836 - -28.3°
